Location: Melque
(41.0517°N, 4.4694°W)
Time: 07:30:48
(UTC+00:00)

IRS-P3 - Visible Passes

Search period start: 11 March 2026 00:00
Search period end: 21 March 2026 00:00
Orbit: 811 x 815 km, 99.0° (Epoch: 10 March)

Date Brightness Start Highest point End Pass type
(mag) Time Alt. Az. Time Alt. Az. Time Alt. Az.
11 Mar 7.3 20:05:58 10° WSW 20:08:15 13° W 20:10:32 10° WNW visible
12 Mar 6.8 19:41:07 10° SW 19:45:06 21° W 19:49:07 10° NW visible
13 Mar 6.0 19:17:15 10° SSW 19:22:03 34° W 19:26:52 10° NNW visible
14 Mar 7.9 05:56:50 10° E 05:57:34 10° E 05:58:19 10° E visible
14 Mar 5.0 18:53:51 10° S 18:59:04 56° W 19:04:18 10° NNW visible
15 Mar 7.5 20:15:50 10° W 20:16:44 10° W 20:17:38 10° WNW visible
16 Mar 7.0 19:50:01 10° SW 19:53:33 18° W 19:57:08 10° NW visible
17 Mar 6.3 19:25:53 10° SSW 19:30:28 29° W 19:35:04 10° NW visible
18 Mar 5.3 19:02:21 10° S 19:07:27 47° W 19:12:36 10° NNW visible
20 Mar 7.1 19:58:59 10° SW 20:02:01 15° W 20:05:02 10° NW visible
